Weather Roundup
Issued by NWS

Home | Current Version | Previous Version | Text Only | Print | Product List | Glossary On
Versions: 1 2 3 4 5 6 7 8 9 10 11 12 13 14 15 16 17 18 19 20 21 22 23 24 25 26 27 28 29 30 31 32 33 34 35 36 37 38 39 40 41 42 43 44 45 46 47 48 49 50
947
NZUS93 KARX 230210
HRRWXR

CURRENT HOURLY OBSERVATIONS ACROSS
MUCH OF THE UPPER MISSISSIPPI VALLEY
NATIONAL WEATHER SERVICE LA CROSSE WI
900 PM CDT FRI JUL 22 2016


...SOUTHEAST MINNESOTA...


CITY           SKY/WX    TMP DP  RH WIND       PRES   REMARKS
ROCHESTER      MOCLDY    83  77  82 NE6       29.99S HX  92
ROCHESTER/MAYO FAIR      84  70  61 CALM      29.98S
WINONA         CLEAR     81  70  69 CALM      29.95F
AUSTIN         CLEAR     81  77  89 CALM      29.98S
ALBERT LEA     CLEAR     82  79  89 CALM      29.97S HX  93
DODGE CENTER   CLEAR     79  70  73 E6        29.98F
PRESTON        CLEAR     81  76  85 S3        29.99S
OWATONNA       PTCLDY    81  72  74 E3        29.97F
FARIBAULT      CLEAR     79  72  78 CALM      29.96F
$$

...ELSEWHERE IN MINNESOTA...


CITY           SKY/WX    TMP DP  RH WIND       PRES   REMARKS
MINNEAPOLIS    MOCLDY    88  61  40 SE7       29.96R
INTNL FALLS    CLEAR     67  62  84 CALM      29.96S
DULUTH         CLEAR     76  59  55 NW6       29.97F
RED WING       CLEAR     75  72  88 CALM      29.95R
REDWOOD FALLS  CLOUDY    82  69  64 E8        29.94S
MANKATO        PTCLDY    82  70  65 E7        29.96S
WORTHINGTON    PTCLDY    81  79  94 E6        29.97F HX  90
FAIRMONT       CLEAR     81  72  74 SE5       29.96S
$$

...SOUTHWEST WISCONSIN...


CITY           SKY/WX    TMP DP  RH WIND       PRES   REMARKS
LA CROSSE      CLEAR     86  76  71 CALM      29.94F HX  96
PRAIRIE DU CHI MOCLDY    81  76  85 E3        29.96S
BOSCOBEL       CLEAR     81  78  91 CALM      29.97S
LONE ROCK      PTCLDY    81  78  91 CALM      29.97S
PLATTEVILLE    PTCLDY    80  80  98 CALM      30.00S
FORT MC COY    CLEAR     79  75  87 CALM      29.97F
CAMP DOUGLAS   CLEAR     78  76  94 CALM      29.97S FOG
MAUSTON-NEW LI CLEAR     79  78  96 CALM      29.96F
VIROQUA        FAIR      80  78  95 CALM      29.99F
WIS DELLS      PTCLDY    82  76  83 SW3       29.98S
$$

...ELSEWHERE IN WISCONSIN...


CITY           SKY/WX    TMP DP  RH WIND       PRES   REMARKS
MILWAUKEE      PTCLDY    80  70  71 SE5       29.96S
MADISON        PTCLDY    82  76  81 CALM      29.97R
GREEN BAY      CLEAR     76  74  93 SW3       29.94S
EAU CLAIRE     CLEAR     80  71  74 CALM      29.96F
BLACK RVR FLS  FAIR      75  75  99 CALM      29.96F
MEDFORD        CLEAR     70  70 100 CALM      30.00F
WAUSAU         CLEAR     80  68  66 W3        29.97F
WIS RAPIDS     CLEAR     76  68  76 CALM      29.99F
MARSHFIELD     CLEAR     77  69  76 CALM      29.99F
RICE LAKE      CLEAR     74  70  88 CALM      29.99S
$$

...NORTHEAST IOWA...


CITY           SKY/WX    TMP DP  RH WIND       PRES   REMARKS
WATERLOO       CLEAR     83  76  79 SE6       29.94F HX  91
DUBUQUE        PTCLDY    79  77  94 S3        29.99F
DECORAH        PTCLDY    81  79  94 CALM      29.98S
MASON CITY     PTCLDY    81  78  91 SE5       29.99R
CHARLES CITY   CLEAR     81  81 100 SE5       29.98S HX  91
OELWEIN        CLEAR     81  79  94 SE5       29.98F
$$

...ELSEWHERE IN IOWA...


CITY           SKY/WX    TMP DP  RH WIND       PRES   REMARKS
DES MOINES     PTCLDY    87  78  74 SE8       29.93F HX 100
IOWA CITY      CLEAR     81  78  91 SE6       29.98F
FORT DODGE     MOCLDY    82  79  89 E6        29.95F HX  93
MARSHALLTOWN   PTCLDY    82  78  88 S7        29.95F HX  91
CEDAR RAPIDS   CLEAR     82  81  96 SE5       29.96F HX  95
$$

...NORTHERN ILLINOIS...


CITY           SKY/WX    TMP DP  RH WIND       PRES   REMARKS
CHICAGO-OHARE  PTCLDY    86  75  69 NW6       29.97R HX  95
CHICAGO-MIDWAY MOCLDY    87  71  58 E8        29.97R HX  93
MOLINE         MOCLDY    82  77  84 SW3       29.98S HX  90
ROCKFORD       MOCLDY    84  76  76 CALM      29.99S HX  93
PEORIA         MOCLDY    83  77  82 SW5       30.00R HX  92
$$

NOTE: "FAIR" INDICATES FEW OR NO CLOUDS BELOW 12,000 FEET WITH NO
SIGNIFICANT WEATHER AND/OR OBSTRUCTIONS TO VISIBILITY. WIND
SPEEDS ARE IN MILES-PER-HOUR.




USA.gov is the U.S. government's official web portal to all federal, state and local government web resources and services.